TimeEDT,TemperatureF,Dew PointF,Humidity,Sea Level PressureIn,VisibilityMPH,Wind Direction,Wind SpeedMPH,Gust SpeedMPH,PrecipitationIn,Events,Conditions,WindDirDegrees,DateUTC
12:51 AM,51.8,41.0,67,30.04,10.0,South,3.5,-,N/A,,Clear,180,2011-10-16 04:51:00
1:51 AM,53.1,39.0,59,30.04,10.0,Calm,Calm,-,N/A,,Clear,0,2011-10-16 05:51:00
2:51 AM,45.0,39.0,80,30.05,10.0,Calm,Calm,-,N/A,,Clear,0,2011-10-16 06:51:00
3:51 AM,46.9,39.9,77,30.05,10.0,Calm,Calm,-,N/A,,Clear,0,2011-10-16 07:51:00
4:51 AM,48.0,37.9,68,30.07,10.0,Calm,Calm,-,N/A,,Clear,0,2011-10-16 08:51:00
5:51 AM,48.9,37.9,66,30.08,10.0,Calm,Calm,-,N/A,,Clear,0,2011-10-16 09:51:00
6:51 AM,48.2,37.4,66,30.10,10.0,Calm,Calm,-,N/A,,Clear,0,2011-10-16 10:51:00
7:51 AM,53.1,36.0,52,30.11,10.0,Variable,4.6,-,N/A,,Clear,0,2011-10-16 11:51:00
8:51 AM,55.0,44.1,67,30.14,10.0,Calm,Calm,-,N/A,,Clear,0,2011-10-16 12:51:00
9:51 AM,61.0,42.1,50,30.14,10.0,Calm,Calm,-,N/A,,Clear,0,2011-10-16 13:51:00
10:51 AM,66.0,46.0,48,30.14,10.0,Variable,3.5,-,N/A,,Clear,0,2011-10-16 14:51:00
11:51 AM,70.0,39.0,32,30.13,10.0,West,4.6,-,N/A,,Clear,260,2011-10-16 15:51:00
12:51 PM,73.0,42.1,33,30.09,10.0,SW,9.2,-,N/A,,Clear,230,2011-10-16 16:51:00
1:51 PM,75.0,41.0,29,30.05,10.0,SW,12.7,19.6,N/A,,Clear,230,2011-10-16 17:51:00
2:51 PM,77.0,45.0,32,30.02,10.0,SW,9.2,-,N/A,,Clear,230,2011-10-16 18:51:00
3:51 PM,77.0,43.0,30,30.00,10.0,SW,12.7,-,N/A,,Clear,230,2011-10-16 19:51:00
4:51 PM,77.0,43.0,30,29.98,10.0,SSW,10.4,-,N/A,,Clear,210,2011-10-16 20:51:00
5:51 PM,75.0,44.1,33,29.97,10.0,SSW,9.2,-,N/A,,Clear,210,2011-10-16 21:51:00
6:51 PM,70.0,45.0,41,29.96,10.0,SSW,10.4,-,N/A,,Clear,200,2011-10-16 22:51:00
7:51 PM,68.0,45.0,43,29.97,10.0,SSW,9.2,-,N/A,,Clear,210,2011-10-16 23:51:00
8:51 PM,66.9,45.0,45,29.98,10.0,SSW,9.2,-,N/A,,Clear,210,2011-10-17 00:51:00
9:51 PM,66.9,45.0,45,29.97,10.0,SSW,11.5,-,N/A,,Clear,210,2011-10-17 01:51:00
10:51 PM,64.0,46.0,52,29.97,10.0,SW,11.5,-,N/A,,Clear,220,2011-10-17 02:51:00
11:51 PM,64.9,46.0,50,29.95,10.0,SW,12.7,-,N/A,,Clear,220,2011-10-17 03:51:00